User: anonymous   Login
Location: Westminster College Observatory
(41.1194°N, 80.3291°W)
Time: 05:23:54
(UTC-05:00)
Language:

Tiangong 2 - Orbit

View from above orbital plane
View from above orbital plane
View from above satellite
View from above satellite

Ground track
Ground track

The orbit data is extracted from the following two-line orbital elements,

1 41765U 16057A   18344.17870060  .00003904  00000-0  51206-4 0  9995
2 41765  42.7858  13.4702 0007065  28.0245  84.9453 15.60173299127506
Epoch (UTC): 10 December 2018 04:17:19
Eccentricity: 0.0007065
inclination: 42.7858°
perigee height: 382 km
apogee height: 392 km
right ascension of ascending node: 13.4702°
argument of perigee: 28.0245°
revolutions per day: 15.60173299
mean anomaly at epoch: 84.9453°
orbit number at epoch: 12750

The dashed part of the orbit path shows where the satellite is in the earth's shadow,  

DLR